This is the latest recevied weather packets stored in our database for station/object LU3HGB-WX. If no packets are shown the sender has not sent any weather packets the latest 10 day(s).
| Time | Temp. | Humidity | Pressure | Rain* | Wind** | Luminosity | Snow |
|---|---|---|---|---|---|---|---|
| 1777837959 | 20.56° C | 36% | 1013 hPa | 0 mm | - | 293 W/m² | - |
| 1777837660 | 21.11° C | 35% | 1013 hPa | 0 mm | - | 306 W/m² | - |
| 1777837360 | 21.11° C | 36% | 1013 hPa | 0 mm | - | 326 W/m² | - |
| 1777837059 | 21.11° C | 36% | 1013 hPa | 0 mm | - | 343 W/m² | - |
| 1777836759 | 20.56° C | 35% | 1013 hPa | 0 mm | - | 359 W/m² | - |
| 1777836459 | 20.56° C | 36% | 1013 hPa | 0 mm | - | 377 W/m² | - |
| 1777836160 | 20.56° C | 36% | 1013 hPa | 0 mm | - | 393 W/m² | - |
| 1777835860 | 20.56° C | 35% | 1014 hPa | 0 mm | - | 413 W/m² | - |
| 1777835560 | 21.11° C | 35% | 1014 hPa | 0 mm | - | 425 W/m² | - |
| 1777835259 | 21.11° C | 37% | 1014 hPa | 0 mm | - | 440 W/m² | - |
| 1777834959 | 21.11° C | 36% | 1014 hPa | 0 mm | - | 457 W/m² | - |
| 1777834659 | 21.67° C | 37% | 1014 hPa | 0 mm | - | 470 W/m² | - |
| 1777834359 | 21.67° C | 34% | 1014 hPa | 0 mm | - | 485 W/m² | - |
| 1777834059 | 21.11° C | 35% | 1014 hPa | 0 mm | - | 503 W/m² | - |
| 1777833760 | 21.11° C | 37% | 1014 hPa | 0 mm | - | 514 W/m² | - |
| 1777833459 | 21.67° C | 35% | 1014 hPa | 0 mm | - | 529 W/m² | - |
| 1777833166 | 21.67° C | 35% | 1014 hPa | 0 mm | - | 538 W/m² | - |
| 1777832859 | 21.67° C | 36% | 1014 hPa | 0 mm | - | 553 W/m² | - |
| 1777832560 | 21.67° C | 36% | 1014 hPa | 0 mm | - | 566 W/m² | - |
| 1777832260 | 21.67° C | 37% | 1014 hPa | 0 mm | - | 579 W/m² | - |
| 1777831960 | 21.67° C | 36% | 1014 hPa | 0 mm | - | 588 W/m² | - |
| 1777831660 | 21.11° C | 33% | 1014 hPa | 0 mm | - | 601 W/m² | - |
| 1777831359 | 21.11° C | 34% | 1014 hPa | 0 mm | - | 610 W/m² | - |
| 1777831059 | 21.67° C | 34% | 1014 hPa | 0 mm | - | 621 W/m² | - |
| 1777830759 | 21.67° C | 32% | 1014 hPa | 0 mm | - | 631 W/m² | - |
* Rain latest hour (hover to see other rain measurements)
** Current wind speed in m/s (hover to see current wind gust speed)